Wind_Speed
22 20 20 22 27 27 24 21 26 28 27 23 22 19 17 15 15 14 15 15 14 18 19 19 19 18 18 15 16 11 11 11 11 13 12 14 16 16 17 18 21 22 22
25 24 24 21 29 29 26 24 28 30 28 26 23 21 19 17 16 15 16 17 17 18 21 22 21 22 20 18 16 15 14 14 15 14 14 14 15 18 21 22 22 23 26
25 29 27 27 28 30 28 24 31 31 29 25 23 21 19 18 18 18 18 19 21 21 23 25 23 24 23 21 19 17 16 16 17 16 17 17 17 18 20 21 24 28 30
30 32 32 31 27 30 29 27 30 30 29 26 23 22 21 22 22 21 21 21 23 24 25 26 25 24 23 22 22 20 20 20 19 20 19 20 21 22 23 24 25 27 28
32 35 37 33 30 30 33 32 32 32 31 29 26 26 26 25 23 23 23 25 26 26 26 26 27 24 23 23 23 24 26 25 25 25 23 24 24 25 28 30 28 28 25
33 36 34 35 34 32 34 37 36 35 33 31 30 29 29 27 26 26 26 27 28 28 25 21 28 29 24 22 23 24 26 27 28 28 30 28 26 27 30 33 31 32 33
36 35 32 32 36 36 35 39 40 39 38 36 35 34 31 31 31 29 28 29 31 29 23 25 29 30 26 21 24 26 26 23 30 28 29 26 27 27 32 32 33 36 36
37 38 32 25 30 37 40 38 43 43 42 41 39 37 36 35 33 31 31 34 32 26 26 31 32 31 27 24 25 26 20 27 26 25 25 25 27 29 33 36 36 37 39
40 37 34 31 30 32 40 42 42 46 47 45 43 41 40 37 33 33 35 34 28 26 29 32 30 28 26 27 24 23 22 26 24 25 25 26 26 29 33 35 35 39 42
45 38 35 33 31 35 37 37 44 44 47 48 45 42 41 39 35 35 35 29 27 29 30 29 28 24 25 27 24 19 23 22 24 24 24 26 30 32 33 35 38 41 42
36 38 40 37 37 36 36 42 41 44 49 49 45 45 44 42 38 35 32 31 30 30 29 28 25 23 24 21 18 18 21 23 23 23 24 27 32 32 34 37 39 36 35
39 39 42 40 40 33 31 42 43 45 45 47 51 50 43 40 35 34 29 28 30 28 28 29 24 26 20 17 17 18 21 21 22 25 27 29 30 33 35 34 32 30 31
42 43 44 44 41 40 38 33 38 43 50 49 48 43 42 43 36 36 25 28 35 30 28 27 26 22 19 18 19 18 20 22 25 24 25 27 30 31 29 26 28 30 30
43 43 43 43 46 49 47 46 44 46 50 51 50 46 45 43 40 37 29 28 31 32 28 27 21 19 19 21 19 19 20 18 19 22 24 26 25 23 23 26 28 28 28
39 42 45 49 49 48 47 50 53 57 51 48 48 43 44 37 24 17 26 29 27 26 26 21 19 20 20 19 19 18 15 15 20 22 23 22 22 23 24 27 29 29 30
46 48 49 51 54 58 58 61 58 59 53 45 47 49 47 16 13 16 22 23 22 24 23 19 19 18 18 17 17 17 13 17 19 21 21 21 22 23 25 28 29 30 29
45 48 50 42 47 57 60 57 49 34 46 39 25 30 32 20 16 15 18 24 23 20 18 18 18 16 15 15 16 15 14 18 20 20 19 20 22 23 26 27 27 26 26
42 45 47 46 25 45 34 25 44 59 17 27 25 28 33 29 22 18 28 24 17 17 16 16 15 14 14 15 16 14 15 19 19 18 19 19 20 23 24 24 24 24 24
32 35 38 37 55 46 32 32 16 16 12 14 21 18 17 17 22 25 21 17 16 15 14 15 15 16 16 17 16 14 17 17 17 18 16 16 18 21 21 20 20 22 23
16 18 11 9 9 11 9 13 13 15 17 19 17 15 17 18 15 13 13 16 15 15 16 17 16 16 18 16 12 14 15 16 16 15 14 16 18 20 19 19 19 19 21
5 4 7 8 8 6 6 9 10 13 12 11 13 15 14 13 12 12 13 13 15 17 14 15 17 18 16 14 13 14 13 14 14 13 14 16 18 18 17 17 17 19 20
13 11 11 9 10 12 13 12 12 11 10 9 12 13 11 9 7 8 8 9 13 13 13 14 14 14 12 14 15 13 13 14 13 14 14 15 16 17 16 16 16 17 19
13 14 11 8 7 6 5 6 8 8 6 9 9 8 7 10 6 3 5 7 8 9 11 12 13 14 14 14 17 16 13 13 12 12 14 15 15 14 14 14 15 16 18
14 15 16 13 11 3 1 5 7 6 11 13 11 8 6 8 5 9 11 10 9 11 12 11 13 16 12 12 16 17 14 13 10 10 14 14 14 14 13 13 14 15 17
23 19 16 13 10 8 7 8 13 14 15 16 16 11 9 11 12 13 13 12 11 13 11 10 11 10 11 12 15 16 13 11 10 11 14 14 13 13 12 13 13 15 16
26 25 25 31 31 20 21 10 5 11 13 14 10 11 11 12 13 12 14 16 17 16 14 12 12 10 10 12 14 14 13 11 11 12 14 14 13 13 13 12 13 14 15
Wind_Direction
223 226 239 225 217 213 218 215 201 196 194 198 208 212 221 231 243 259 271 280 295 303 308 307 311 312 319 331 332 328 315 282 286 290 286 282 278 275 280 286 291 291 296
231 229 232 231 216 213 214 212 203 197 195 204 210 218 230 240 252 263 272 284 291 296 299 302 305 306 308 312 323 321 312 305 288 285 289 281 273 278 286 290 291 291 292
232 232 228 232 221 215 213 211 204 201 200 207 216 223 231 244 254 264 271 280 290 295 296 299 299 299 301 302 306 309 308 283 291 281 283 284 277 278 283 291 294 293 293
234 235 231 231 228 217 216 212 209 207 210 214 222 236 243 248 255 265 277 285 289 292 293 294 294 295 292 289 291 298 302 296 275 273 269 278 277 281 283 287 286 289 283
234 233 231 231 232 221 218 217 215 214 215 220 231 241 248 254 259 267 276 282 284 287 289 297 298 293 282 278 281 292 296 294 299 275 271 270 271 274 283 289 293 294 291
232 230 227 228 229 226 221 219 218 219 223 228 234 245 255 260 266 271 274 275 277 278 284 292 290 288 287 278 278 286 289 294 295 282 274 275 283 283 285 288 299 302 294
234 231 229 229 229 228 226 221 219 221 223 229 235 245 253 262 267 270 270 268 269 271 275 282 286 288 291 278 271 275 282 287 291 287 274 282 286 284 287 293 289 291 292
227 228 225 226 232 231 229 228 225 226 228 232 235 244 253 257 262 264 266 265 265 260 273 281 281 288 287 280 273 274 277 281 285 279 273 279 282 282 283 287 291 292 294
227 228 225 229 232 235 235 233 230 231 232 236 239 246 253 256 256 259 263 264 254 257 268 272 280 289 286 287 279 269 272 282 274 273 274 277 280 285 287 291 292 293 296
231 234 237 240 240 241 243 240 237 236 235 238 241 247 251 252 250 256 258 249 248 263 271 280 286 284 284 287 278 271 275 269 268 267 272 276 286 291 292 295 296 298 297
233 240 244 244 244 239 238 240 240 239 239 242 244 243 244 247 251 249 242 246 255 271 273 279 281 278 280 276 278 271 265 262 262 270 274 281 291 292 296 298 299 299 300
225 240 230 239 237 235 235 237 236 239 241 242 242 243 242 240 238 230 234 260 265 276 277 280 281 281 278 275 274 265 257 266 267 276 282 288 294 297 298 298 298 300 302
243 244 245 241 238 245 246 251 240 242 240 243 243 239 235 235 231 216 231 258 264 273 274 279 277 278 279 275 274 264 261 269 275 281 289 295 297 299 299 297 297 300 301
246 242 243 248 248 249 250 243 243 238 238 242 244 241 235 227 218 227 236 250 268 272 271 274 273 272 272 278 267 266 273 278 282 289 296 296 298 298 296 297 298 298 296
248 251 255 251 246 243 245 247 246 246 241 238 240 240 240 205 201 222 243 256 262 265 270 270 267 271 272 268 270 271 274 286 291 295 296 296 297 298 300 302 302 301 303
250 251 250 252 250 251 249 248 249 245 242 238 236 234 227 251 208 216 244 255 262 266 277 269 267 267 265 265 266 266 285 291 289 290 293 295 297 301 304 303 302 302 306
251 254 254 261 264 255 250 242 241 196 236 217 225 241 238 265 188 233 252 271 270 262 264 264 258 256 259 263 267 277 287 284 286 290 295 298 299 303 303 301 302 304 306
263 262 256 250 264 220 224 231 228 297 300 247 259 225 237 210 203 232 260 259 256 257 254 250 252 255 257 259 262 271 278 276 284 289 293 295 299 298 299 301 302 304 311
273 276 276 270 244 255 270 268 247 219 183 171 182 177 176 195 224 240 233 235 243 244 242 247 251 252 254 254 260 267 272 278 282 285 289 294 298 299 301 302 304 311 314
265 268 279 248 238 216 227 140 163 174 177 178 182 196 219 227 214 219 230 227 230 232 244 248 246 251 255 257 264 268 275 282 286 289 295 301 304 304 306 308 310 313 314
139 145 148 165 171 175 159 174 176 175 184 207 214 213 212 205 200 205 215 220 239 244 244 249 251 253 256 267 264 268 281 288 290 293 296 304 303 303 301 303 309 312 316
151 144 139 146 153 156 165 176 190 190 188 207 204 194 189 181 189 208 216 225 244 260 266 260 257 262 269 266 266 273 285 286 288 294 301 300 294 293 297 302 309 313 320
194 185 188 193 197 180 196 204 194 196 220 211 206 196 185 169 158 4 290 260 255 271 267 269 269 273 273 273 273 277 280 277 279 285 289 287 285 288 291 300 309 315 322
260 243 208 191 182 191 242 210 192 231 207 209 213 203 197 202 255 304 302 287 291 297 293 286 284 274 267 256 260 264 265 266 276 285 284 281 281 282 288 300 308 314 317
270 247 219 192 209 227 243 268 276 258 222 207 202 204 212 230 259 286 282 290 294 298 291 286 276 272 272 267 260 259 259 264 280 285 281 279 277 280 287 297 304 310 314
232 228 237 251 248 245 230 224 244 280 244 231 225 222 235 253 263 267 272 291 287 281 282 268 259 266 272 281 277 266 263 263 268 274 276 280 280 282 284 289 296 301 309
Height
3156 3159 3161 3163 3166 3168 3172 3175 3179 3181 3184 3187 3190 3192 3193 3194 3196 3198 3198 3198 3198 3197 3196 3196 3195 3195 3194 3193 3193 3190 3188 3188 3188 3188 3186 3185 3184 3183 3182 3181 3180 3178 3177
3154 3155 3157 3159 3161 3163 3167 3171 3175 3178 3181 3183 3186 3187 3189 3190 3191 3193 3194 3194 3194 3194 3193 3192 3191 3190 3190 3189 3188 3188 3185 3183 3182 3183 3183 3182 3181 3180 3178 3178 3176 3174 3173
3148 3150 3151 3153 3155 3159 3163 3167 3170 3174 3177 3179 3182 3183 3185 3186 3188 3189 3190 3190 3190 3190 3189 3187 3187 3185 3185 3184 3183 3182 3181 3179 3178 3177 3177 3176 3176 3175 3174 3172 3171 3168 3166
3142 3144 3145 3147 3150 3154 3158 3162 3166 3170 3172 3174 3177 3179 3180 3182 3183 3184 3184 3185 3184 3184 3183 3182 3181 3181 3181 3180 3178 3176 3175 3174 3172 3172 3172 3171 3170 3169 3168 3167 3167 3165 3163
3135 3137 3138 3142 3146 3149 3152 3155 3160 3163 3166 3169 3171 3172 3174 3176 3177 3177 3178 3178 3178 3177 3176 3176 3175 3174 3174 3174 3173 3171 3169 3168 3166 3164 3165 3165 3165 3164 3162 3160 3158 3157 3156
3128 3130 3132 3135 3139 3142 3145 3148 3152 3156 3159 3161 3163 3165 3166 3168 3170 3171 3171 3171 3171 3170 3171 3171 3169 3167 3166 3166 3166 3164 3163 3162 3161 3158 3157 3157 3158 3156 3154 3152 3151 3148 3146
3121 3125 3126 3129 3132 3135 3138 3141 3144 3147 3150 3152 3154 3156 3157 3160 3162 3164 3164 3163 3163 3163 3163 3163 3160 3160 3159 3159 3158 3157 3156 3155 3154 3153 3152 3152 3151 3149 3147 3144 3140 3135 3134
3114 3117 3120 3122 3125 3128 3130 3133 3136 3138 3140 3143 3145 3147 3150 3153 3155 3156 3156 3154 3155 3156 3156 3155 3152 3151 3151 3150 3150 3150 3150 3150 3148 3146 3146 3146 3143 3140 3138 3136 3133 3129 3128
3105 3109 3114 3116 3118 3120 3121 3125 3127 3129 3131 3134 3136 3139 3142 3145 3147 3148 3147 3146 3147 3148 3148 3146 3145 3144 3143 3142 3141 3140 3141 3142 3141 3140 3139 3138 3136 3134 3131 3129 3127 3123 3121
3098 3102 3106 3109 3111 3112 3115 3116 3118 3120 3122 3124 3127 3130 3132 3135 3137 3138 3138 3139 3140 3141 3141 3140 3138 3137 3134 3132 3132 3132 3133 3134 3133 3132 3132 3131 3129 3128 3124 3122 3118 3115 3111
3089 3095 3098 3100 3101 3103 3105 3106 3108 3110 3112 3114 3117 3118 3120 3123 3126 3129 3129 3131 3133 3135 3135 3133 3131 3130 3128 3125 3123 3125 3126 3126 3126 3126 3125 3125 3123 3120 3117 3114 3109 3105 3102
3082 3085 3087 3090 3092 3093 3093 3095 3096 3099 3101 3102 3103 3104 3108 3110 3113 3116 3120 3125 3126 3127 3127 3127 3126 3126 3123 3120 3116 3117 3117 3119 3120 3120 3119 3118 3116 3112 3109 3106 3101 3097 3094
3072 3074 3078 3080 3081 3081 3082 3084 3085 3085 3087 3089 3090 3094 3096 3096 3099 3104 3110 3114 3117 3117 3117 3118 3118 3116 3116 3115 3112 3108 3109 3110 3112 3112 3111 3110 3107 3104 3101 3098 3096 3092 3089
3064 3067 3069 3069 3071 3071 3073 3072 3072 3072 3073 3077 3082 3083 3082 3081 3086 3094 3100 3111 3116 3112 3107 3108 3108 3108 3109 3107 3108 3104 3102 3102 3104 3104 3103 3101 3099 3097 3094 3091 3090 3086 3083
3053 3056 3058 3058 3059 3059 3059 3061 3058 3056 3057 3061 3067 3070 3059 3051 3061 3080 3098 3104 3105 3106 3102 3098 3099 3100 3101 3101 3102 3100 3094 3094 3098 3098 3097 3095 3092 3090 3088 3086 3083 3079 3075
3040 3041 3041 3045 3048 3049 3047 3046 3045 3044 3043 3046 3054 3052 3056 3044 3072 3080 3092 3095 3095 3097 3094 3090 3090 3094 3096 3096 3096 3096 3087 3086 3089 3090 3089 3088 3087 3084 3082 3080 3077 3073 3069
3030 3029 3028 3028 3028 3023 3023 3026 3041 2998 3034 3036 3043 3053 3049 3043 3064 3077 3086 3087 3088 3090 3087 3085 3086 3087 3088 3089 3091 3088 3079 3082 3083 3083 3083 3083 3082 3079 3076 3074 3071 3068 3064
3018 3017 3017 3011 3017 2977 3009 2999 3011 3009 3006 3027 3043 3055 3044 3043 3056 3069 3075 3079 3078 3079 3079 3079 3083 3082 3082 3084 3084 3077 3074 3077 3077 3077 3077 3078 3077 3074 3071 3068 3065 3063 3059
3009 3007 2998 2991 2999 3016 3012 3014 3019 3022 3026 3026 3035 3043 3046 3048 3053 3059 3064 3066 3068 3069 3072 3074 3077 3079 3077 3077 3074 3068 3072 3072 3072 3073 3072 3072 3071 3069 3067 3064 3061 3057 3055
3001 2997 2992 2999 3009 3008 3005 3014 3016 3020 3025 3032 3031 3037 3044 3046 3048 3050 3053 3057 3061 3064 3066 3070 3071 3071 3072 3068 3060 3063 3065 3066 3067 3067 3066 3065 3064 3063 3061 3058 3056 3054 3051
3001 3003 3005 3008 3012 3012 3014 3020 3023 3025 3027 3026 3031 3038 3041 3043 3041 3046 3050 3051 3056 3058 3061 3063 3064 3063 3059 3056 3055 3056 3058 3060 3061 3061 3059 3060 3060 3058 3057 3055 3053 3050 3047
3003 3006 3008 3011 3014 3017 3020 3023 3024 3024 3026 3029 3032 3034 3035 3038 3040 3043 3044 3046 3051 3054 3056 3057 3055 3054 3049 3049 3050 3051 3053 3054 3056 3056 3055 3055 3055 3055 3053 3051 3049 3047 3044
3006 3007 3010 3012 3015 3017 3019 3020 3021 3023 3025 3027 3029 3031 3033 3036 3037 3037 3040 3044 3047 3048 3050 3049 3046 3043 3042 3043 3045 3048 3049 3050 3051 3050 3051 3052 3052 3051 3050 3048 3046 3043 3041
3006 3008 3009 3010 3011 3012 3015 3016 3016 3019 3021 3023 3026 3029 3029 3032 3034 3037 3039 3041 3043 3042 3042 3041 3038 3038 3037 3039 3042 3044 3045 3046 3045 3046 3048 3048 3047 3047 3045 3044 3042 3040 3038
3002 3003 3003 3003 3004 3005 3008 3010 3014 3017 3018 3018 3021 3023 3027 3029 3032 3035 3035 3035 3034 3034 3034 3034 3034 3035 3036 3037 3038 3039 3040 3040 3041 3042 3044 3044 3043 3042 3040 3039 3039 3037 3035
2995 2996 2998 3000 3002 3004 3007 3010 3011 3012 3012 3013 3016 3020 3022 3024 3026 3028 3029 3029 3028 3028 3028 3029 3029 3032 3034 3034 3034 3034 3036 3036 3036 3038 3039 3039 3038 3037 3036 3035 3035 3034 3032